EN

Hourly Weather Bolshie Pustynki

Today, 28 October, Wednesday

Time Temperature Precipitation Wind Pressure Humidity
00:00 +9°C° 0.1 mm 5 mps 752 mmHg 85%
01:00 +10°C° 0.1 mm 5 mps 752 mmHg 86%
02:00 +10°C° 0.1 mm 5 mps 751 mmHg 87%
03:00 +10°C° 0.1 mm 5 mps 751 mmHg 87%
04:00 +10°C° 0.1 mm 5 mps 751 mmHg 88%
05:00 +10°C° 0.1 mm 5 mps 751 mmHg 89%
06:00 +11°C° 1.3 mm 4 mps 752 mmHg 90%
07:00 +10°C° 1.3 mm 3 mps 752 mmHg 91%
08:00 +11°C° 1.3 mm 1 mps 753 mmHg 92%
09:00 +10°C° 0 mm 2 mps 753 mmHg 89%
10:00 +12°C° 0 mm 2 mps 754 mmHg 86%
11:00 +12°C° 0 mm 2 mps 754 mmHg 83%
12:00 +13°C° 0 mm 2 mps 754 mmHg 82%
13:00 +13°C° 0 mm 2 mps 754 mmHg 81%
14:00 +13°C° 0 mm 2 mps 754 mmHg 80%
15:00 +12°C° 0 mm 2 mps 754 mmHg 84%
16:00 +10°C° 0 mm 2 mps 754 mmHg 89%
17:00 +9°C° 0 mm 2 mps 754 mmHg 93%
18:00 +10°C° 0 mm 2 mps 754 mmHg 94%
19:00 +10°C° 0 mm 2 mps 754 mmHg 94%
20:00 +10°C° 0 mm 2 mps 754 mmHg 95%
21:00 +10°C° 0 mm 3 mps 754 mmHg 94%
22:00 +11°C° 0 mm 3 mps 754 mmHg 93%
23:00 +11°C° 0 mm 3 mps 754 mmHg 92%

Tomorrow, 29 October, Thursday

Time Temperature Precipitation Wind Pressure Humidity
00:00 +11°C° 0.2 mm 3 mps 754 mmHg 92%
01:00 +11°C° 0.2 mm 3 mps 753 mmHg 92%
02:00 +11°C° 0.2 mm 3 mps 753 mmHg 93%
03:00 +11°C° 0.2 mm 3 mps 753 mmHg 93%
04:00 +11°C° 0.2 mm 3 mps 753 mmHg 93%
05:00 +11°C° 0.2 mm 3 mps 752 mmHg 94%
06:00 +11°C° 0.1 mm 3 mps 752 mmHg 94%
07:00 +11°C° 0.1 mm 3 mps 752 mmHg 94%
08:00 +11°C° 0.1 mm 3 mps 752 mmHg 94%
09:00 +11°C° 0.3 mm 3 mps 752 mmHg 93%
10:00 +11°C° 0.3 mm 4 mps 752 mmHg 92%
11:00 +11°C° 0.3 mm 4 mps 752 mmHg 91%
12:00 +11°C° 0.1 mm 3 mps 752 mmHg 91%
13:00 +11°C° 0.1 mm 3 mps 752 mmHg 90%
14:00 +11°C° 0.1 mm 3 mps 751 mmHg 89%
15:00 +11°C° 0 mm 3 mps 751 mmHg 90%
16:00 +11°C° 0 mm 3 mps 751 mmHg 92%
17:00 +10°C° 0 mm 2 mps 751 mmHg 93%
18:00 +10°C° 0 mm 2 mps 752 mmHg 94%
19:00 +9°C° 0 mm 2 mps 752 mmHg 95%
20:00 +9°C° 0 mm 2 mps 752 mmHg 96%
21:00 +9°C° 0 mm 2 mps 752 mmHg 96%
22:00 +8°C° 0 mm 2 mps 752 mmHg 96%
23:00 +9°C° 0 mm 1 mps 752 mmHg 97%

Day after tomorrow, 30 October, Friday

Time Temperature Precipitation Wind Pressure Humidity
00:00 +9°C° 0 mm 1 mps 752 mmHg 96%
01:00 +8°C° 0 mm 1 mps 752 mmHg 96%
02:00 +8°C° 0 mm 1 mps 752 mmHg 96%
03:00 +8°C° 0 mm 1 mps 752 mmHg 96%
04:00 +8°C° 0 mm 1 mps 752 mmHg 96%
05:00 +8°C° 0 mm 1 mps 752 mmHg 96%
06:00 +8°C° 0 mm 1 mps 752 mmHg 96%
07:00 +8°C° 0 mm 1 mps 752 mmHg 96%
08:00 +8°C° 0 mm 1 mps 752 mmHg 96%
09:00 +9°C° 0 mm 1 mps 752 mmHg 93%
10:00 +9°C° 0 mm 1 mps 752 mmHg 90%
11:00 +10°C° 0 mm 1 mps 752 mmHg 87%
12:00 +10°C° 0 mm 1 mps 752 mmHg 86%
13:00 +11°C° 0 mm 1 mps 752 mmHg 85%
14:00 +11°C° 0 mm 1 mps 752 mmHg 84%
15:00 +10°C° 0 mm 1 mps 753 mmHg 87%
16:00 +9°C° 0 mm 1 mps 753 mmHg 90%
17:00 +8°C° 0 mm 1 mps 753 mmHg 94%
18:00 +8°C° 0 mm 1 mps 753 mmHg 94%
19:00 +8°C° 0 mm 1 mps 753 mmHg 95%
20:00 +8°C° 0 mm 1 mps 754 mmHg 95%
21:00 +8°C° 0 mm 1 mps 754 mmHg 94%
22:00 +8°C° 0 mm 1 mps 754 mmHg 92%
23:00 +8°C° 0 mm 1 mps 755 mmHg 91%

31 October, Saturday

Time Temperature Precipitation Wind Pressure Humidity
00:00 +7°C° 0 mm 1 mps 755 mmHg 92%
01:00 +7°C° 0 mm 1 mps 755 mmHg 93%
02:00 +6°C° 0 mm 2 mps 756 mmHg 94%
03:00 +5°C° 0 mm 2 mps 756 mmHg 95%
04:00 +5°C° 0 mm 2 mps 757 mmHg 96%
05:00 +5°C° 0 mm 2 mps 757 mmHg 96%
06:00 +4°C° 0 mm 2 mps 757 mmHg 97%
07:00 +4°C° 0 mm 2 mps 758 mmHg 97%
08:00 +5°C° 0 mm 1 mps 758 mmHg 97%
09:00 +5°C° 0 mm 2 mps 759 mmHg 94%
10:00 +6°C° 0 mm 2 mps 759 mmHg 90%
11:00 +7°C° 0 mm 2 mps 760 mmHg 87%
12:00 +8°C° 0 mm 2 mps 760 mmHg 86%
13:00 +8°C° 0 mm 2 mps 760 mmHg 85%
14:00 +8°C° 0 mm 2 mps 760 mmHg 83%
15:00 +8°C° 0 mm 2 mps 761 mmHg 84%
16:00 +7°C° 0 mm 2 mps 761 mmHg 84%
17:00 +7°C° 0 mm 2 mps 762 mmHg 85%
18:00 +7°C° 0 mm 2 mps 762 mmHg 84%
19:00 +8°C° 0 mm 1 mps 762 mmHg 83%
20:00 +7°C° 0 mm 1 mps 763 mmHg 83%
21:00 +7°C° 0 mm 1 mps 763 mmHg 82%
22:00 +7°C° 0 mm 1 mps 763 mmHg 82%
23:00 +7°C° 0 mm 1 mps 763 mmHg 81%

1 November, Sunday

Time Temperature Precipitation Wind Pressure Humidity
00:00 +7°C° 0 mm 1 mps 763 mmHg 81%
01:00 +7°C° 0 mm 1 mps 763 mmHg 81%
02:00 +7°C° 0 mm 1 mps 764 mmHg 81%
03:00 +7°C° 0 mm 1 mps 763 mmHg 81%
04:00 +6°C° 0 mm 1 mps 763 mmHg 82%
05:00 +6°C° 0 mm 1 mps 763 mmHg 82%
06:00 +6°C° 0 mm 1 mps 763 mmHg 82%
07:00 +6°C° 0 mm 1 mps 764 mmHg 82%
08:00 +5°C° 0 mm 2 mps 764 mmHg 82%
09:00 +6°C° 0 mm 2 mps 764 mmHg 80%
10:00 +6°C° 0 mm 2 mps 763 mmHg 78%
11:00 +6°C° 0 mm 2 mps 763 mmHg 76%
12:00 +7°C° 0 mm 2 mps 763 mmHg 76%
13:00 +7°C° 0 mm 2 mps 763 mmHg 76%
14:00 +7°C° 0 mm 2 mps 762 mmHg 77%
15:00 +6°C° 0 mm 2 mps 762 mmHg 81%
16:00 +5°C° 0 mm 2 mps 762 mmHg 86%
17:00 +5°C° 0 mm 2 mps 762 mmHg 91%
18:00 +3°C° 0 mm 3 mps 762 mmHg 92%
19:00 +3°C° 0 mm 3 mps 761 mmHg 93%
20:00 +3°C° 0 mm 3 mps 761 mmHg 94%
21:00 +2°C° 0 mm 3 mps 761 mmHg 93%
22:00 +2°C° 0 mm 3 mps 761 mmHg 93%
23:00 +1°C° 0 mm 4 mps 761 mmHg 92%

2 November, Monday

Time Temperature Precipitation Wind Pressure Humidity
00:00 +3°C° 0 mm 4 mps 760 mmHg 91%
01:00 +3°C° 0 mm 4 mps 760 mmHg 90%
02:00 +3°C° 0 mm 4 mps 760 mmHg 89%
03:00 +3°C° 0 mm 4 mps 759 mmHg 87%
04:00 +2°C° 0 mm 5 mps 759 mmHg 84%
05:00 +2°C° 0 mm 5 mps 759 mmHg 82%
06:00 +2°C° 0 mm 5 mps 759 mmHg 81%
07:00 +2°C° 0 mm 5 mps 758 mmHg 80%
08:00 +2°C° 0 mm 5 mps 758 mmHg 79%
09:00 +3°C° 0 mm 5 mps 758 mmHg 75%
10:00 +4°C° 0 mm 6 mps 758 mmHg 70%
11:00 +5°C° 0 mm 6 mps 758 mmHg 66%
12:00 +5°C° 0 mm 6 mps 758 mmHg 66%
13:00 +7°C° 0 mm 6 mps 757 mmHg 66%
14:00 +7°C° 0 mm 6 mps 757 mmHg 66%
15:00 +7°C° 0 mm 6 mps 757 mmHg 68%
16:00 +7°C° 0 mm 5 mps 757 mmHg 70%
17:00 +7°C° 0 mm 5 mps 757 mmHg 72%
18:00 +7°C° 0 mm 5 mps 757 mmHg 73%
19:00 +7°C° 0 mm 5 mps 757 mmHg 74%
20:00 +7°C° 0 mm 5 mps 758 mmHg 75%
21:00 +7°C° 0 mm 5 mps 758 mmHg 76%
22:00 +7°C° 0 mm 5 mps 757 mmHg 77%
23:00 +7°C° 0 mm 5 mps 757 mmHg 78%
Show more